{"data":{"norad_id":61892,"intl_designator":"2024-204U","name":"STARLINK-32239","alt_names":[],"object_type":"PAYLOAD","status":"ACTIVE","operator":null,"country":"US","launch_date":"2024-11-09","launch_site_code":"AFWTR","launch_vehicle":null,"mission":null,"orbit_class":"UNKNOWN","rcs_meters":null,"size_class":null,"mass_kg":null,"dimensions":null,"purposes":["comms"],"wikipedia_slug":null,"has_3d_model":false,"image_url":null,"decayed_at":null,"tle_current":{"epoch":"2026-05-25T02:38:46.140000Z","epoch_age_seconds":61465,"freshness":"FRESH","line1":"1 61892U 24204U   26145.11025625  .00000932  00000+0  43594-4 0  9990","line2":"2 61892  53.1594 132.4136 0001220  79.7488 280.3651 15.30195323 86790","mean_motion":15.30195323,"eccentricity":0.000122,"inclination_deg":53.1594,"raan_deg":132.4136,"arg_perigee_deg":79.7488,"mean_anomaly_deg":280.3651,"bstar":4.3594e-5,"rev_number":8679,"period_min":94.10563333685,"perigee_km":474.39292347769,"apogee_km":476.06514479002,"semimajor_km":6853.3660341339,"source":"CELESTRAK","updated_at":"2026-05-25T13:38:19.479137Z"}}}